GW3186 Weather Reports


time (UTC)temp
C
wind
direction
speed
KPH
gust
KPH
rain 1hr
cm
rain 24hr
cm
rain mn
cm
humidity
%
barometer
mb
20260505163612 26 340 6.4 9.7 0.00 0.00 0.00 39 1014.5
20260505163109 27 338 3.2 4.8 0.00 0.00 0.00 39 1014.2
20260505162606 26 104 1.6 1.6 0.00 0.00 0.00 39 1014.2
20260505162104 26 294 4.8 8.0 0.00 0.00 0.00 40 1014.5
20260505161601 26 354 1.6 1.6 0.00 0.00 0.00 44 1014.5
20260505161058 26 349 4.8 8.0 0.00 0.00 0.00 42 1014.5
20260505160555 26 286 1.6 1.6 0.00 0.00 0.00 46 1014.5
20260505153032 25 191 1.6 3.2 0.00 0.00 0.00 48 1015.2
20260505152529 25 256 1.6 1.6 0.00 0.00 0.00 50 1014.8
20260505152025 25 15 1.6 1.6 0.00 0.00 0.00 47 1015.2
20260505151520 25 96 3.2 3.2 0.00 0.00 0.00 46 1015.2
20260505151018 24 299 0.0 1.6 0.00 0.00 0.00 48 1015.2
20260505150514 24 339 6.4 9.7 0.00 0.00 0.00 49 1015.2
20260505140439 21 31 0.0 0.0 0.00 0.00 0.00 55 1015.2
20260505124852 15 330 1.6 1.6 0.00 0.00 0.00 66 1015.2
20260505124349 15 6 0.0 0.0 0.00 0.00 0.00 67 1015.5
20260505123845 15 319 4.8 4.8 0.00 0.00 0.00 67 1015.2
20260505123342 15 24 1.6 1.6 0.00 0.00 0.00 69 1015.5
20260505122837 14 40 0.0 0.0 0.00 0.00 0.00 71 1015.5
20260505122330 14 46 1.6 1.6 0.00 0.00 0.00 71 1015.2
20260505121826 13 7 0.0 0.0 0.00 0.00 0.00 72 1015.2
20260505121324 13 20 0.0 0.0 0.00 0.00 0.00 72 1015.2
20260505120819 13 24 0.0 0.0 0.00 0.00 0.00 73 1015.2
20260505120316 13 10 0.0 0.0 0.00 0.00 0.00 73 1015.2
20260505115814 12 59 1.6 1.6 0.00 0.00 0.00 73 1015.2
20260505115312 12 348 1.6 1.6 0.00 0.00 0.00 73 1015.2
20260505114810 12 8 0.0 1.6 0.00 0.00 0.00 75 1015.2
20260505114306 12 26 0.0 0.0 0.00 0.00 0.00 75 1015.2
20260505113802 12 11 0.0 0.0 0.00 0.00 0.00 77 1015.2
20260505113259 11 307 1.6 1.6 0.00 0.00 0.00 76 1015.2
20260505112754 11 31 0.0 0.0 0.00 0.00 0.00 78 1015.2
20260505112252 11 31 0.0 0.0 0.00 0.00 0.00 78 1014.8
20260505111753 11 31 0.0 0.0 0.00 0.00 0.00 77 1014.8
20260505111248 11 31 0.0 0.0 0.00 0.00 0.00 77 1015.2
20260505110744 11 31 0.0 0.0 0.00 0.00 0.00 77 1015.2
20260505110243 11 31 0.0 0.0 0.00 0.00 0.00 77 1014.8
20260505102218 11 55 0.0 0.0 0.00 0.00 0.00 77 1014.5
20260505101716 11 57 0.0 0.0 0.00 0.00 0.00 77 1014.8
20260505101212 11 92 1.6 1.6 0.00 0.00 0.00 76 1014.5
20260505100709 12 56 0.0 0.0 0.00 0.00 0.00 76 1014.5
20260505100206 12 50 0.0 0.0 0.00 0.00 0.00 75 1014.5
20260505095701 12 51 0.0 0.0 0.00 0.00 0.00 75 1014.5
20260505095159 11 5 0.0 1.6 0.00 0.00 0.00 76 1014.5
20260505094655 12 7 0.0 0.0 0.00 0.00 0.00 76 1014.5
20260505094151 11 7 0.0 0.0 0.00 0.00 0.00 76 1014.2
20260505093648 11 7 0.0 0.0 0.00 0.00 0.00 77 1014.2
20260505093145 12 7 0.0 0.0 0.00 0.00 0.00 77 1014.5
20260505092642 12 6 0.0 0.0 0.00 0.00 0.00 77 1014.2
20260505092141 12 6 0.0 1.6 0.00 0.00 0.00 77 1014.2
20260505091637 12 7 0.0 0.0 0.00 0.00 0.00 77 1013.8
20260505091135 12 6 0.0 0.0 0.00 0.00 0.00 75 1014.2
20260505090633 12 6 0.0 0.0 0.00 0.00 0.00 74 1014.5
20260505090131 12 6 0.0 0.0 0.00 0.00 0.00 74 1014.2
20260505085628 12 6 0.0 0.0 0.00 0.00 0.00 74 1013.8
20260505085126 12 7 0.0 0.0 0.00 0.00 0.00 74 1013.8
20260505084623 13 8 0.0 0.0 0.00 0.00 0.00 73 1014.2
20260505084122 13 174 0.0 0.0 0.00 0.00 0.00 73 1014.2
20260505083619 13 173 0.0 0.0 0.00 0.00 0.00 73 1014.2
20260505083115 13 56 0.0 1.6 0.00 0.00 0.00 73 1014.2
20260505082611 13 56 1.6 1.6 0.00 0.00 0.00 73 1014.2
20260505082109 13 50 0.0 0.0 0.00 0.00 0.00 73 1013.8
20260505081604 13 28 0.0 1.6 0.00 0.00 0.00 73 1013.8
20260505081102 13 27 0.0 1.6 0.00 0.00 0.00 73 1013.8
20260505080558 13 27 0.0 0.0 0.00 0.00 0.00 73 1013.8
20260505080055 13 27 0.0 0.0 0.00 0.00 0.00 72 1013.8
20260505075550 13 26 0.0 0.0 0.00 0.00 0.00 71 1013.8
20260505075048 13 26 0.0 1.6 0.00 0.00 0.00 72 1013.8
20260505074544 13 19 0.0 0.0 0.00 0.00 0.00 72 1013.4
20260505074042 13 18 0.0 1.6 0.00 0.00 0.00 74 1013.4
20260505073539 13 19 0.0 0.0 0.00 0.00 0.00 73 1013.4
20260505073038 13 358 0.0 0.0 0.00 0.00 0.00 73 1013.4
20260505072533 13 357 0.0 0.0 0.00 0.00 0.00 71 1013.4
20260505072029 13 26 0.0 0.0 0.00 0.00 0.00 71 1013.4
20260505071525 14 26 0.0 0.0 0.00 0.00 0.00 72 1013.0
20260505071023 14 353 0.0 0.0 0.00 0.00 0.00 71 1013.4
20260505070520 14 354 0.0 0.0 0.00 0.00 0.00 70 1013.4
20260505070016 14 5 0.0 0.0 0.00 0.00 0.00 72 1013.0
20260505065512 15 327 1.6 1.6 0.00 0.00 0.00 72 1013.4
20260505065009 15 337 0.0 0.0 0.00 0.00 0.00 72 1013.4
20260505064506 15 2 0.0 0.0 0.00 0.00 0.00 71 1013.4
20260505064004 15 348 0.0 0.0 0.00 0.00 0.00 72 1013.4
20260505063501 14 358 0.0 1.6 0.00 0.00 0.00 71 1013.0
20260505062957 14 358 0.0 1.6 0.00 0.00 0.00 72 1013.0
20260505062454 13 4 0.0 0.0 0.00 0.00 0.00 75 1013.4
20260505061951 13 284 1.6 1.6 0.00 0.00 0.00 76 1013.0
20260505061449 13 348 0.0 0.0 0.00 0.00 0.00 79 1013.4
20260505060946 13 335 0.0 1.6 0.00 0.00 0.00 80 1013.0
20260505060443 13 33 0.0 1.6 0.00 0.00 0.00 81 1013.4
20260505055939 13 29 0.0 0.0 0.00 0.00 0.00 82 1013.4
20260505055435 13 29 0.0 0.0 0.00 0.00 0.00 81 1013.0
20260505054932 13 29 0.0 1.6 0.00 0.00 0.00 81 1013.4
20260505054430 13 29 0.0 0.0 0.00 0.00 0.00 80 1013.4
20260505053927 13 29 0.0 0.0 0.00 0.00 0.00 79 1013.0
20260505053425 14 19 0.0 1.6 0.00 0.00 0.00 76 1013.4
20260505052921 13 40 0.0 1.6 0.00 0.00 0.00 77 1013.0
20260505052418 13 50 0.0 1.6 0.00 0.00 0.00 77 1013.0
20260505051915 13 37 0.0 0.0 0.00 0.00 0.00 79 1013.0
20260505051412 13 33 0.0 1.6 0.00 0.00 0.00 78 1013.4
20260505050910 13 24 0.0 1.6 0.00 0.00 0.00 79 1013.0
20260505050409 13 14 0.0 0.0 0.00 0.00 0.00 78 1013.4
20260505041336 14 358 0.0 0.0 0.00 0.00 0.00 76 1013.0
20260505040833 14 358 0.0 0.0 0.00 0.00 0.00 75 1013.0
20260505040331 14 358 0.0 0.0 0.00 0.00 0.00 75 1013.0
20260505035827 14 358 0.0 0.0 0.00 0.00 0.00 74 1013.0
20260505035323 14 358 0.0 0.0 0.00 0.00 0.00 74 1013.0
20260505034821 15 358 0.0 0.0 0.00 0.00 0.00 74 1013.0
20260505034317 15 358 0.0 0.0 0.00 0.00 0.00 74 1013.0
20260505033814 15 357 0.0 0.0 0.00 0.00 0.00 73 1013.0
20260505033311 14 359 0.0 0.0 0.00 0.00 0.00 74 1013.0
20260505032809 15 0 0.0 0.0 0.00 0.00 0.00 75 1013.0
20260505032305 15 0 0.0 0.0 0.00 0.00 0.00 75 1013.0
20260505031802 15 0 0.0 0.0 0.00 0.00 0.00 74 1013.0
20260505031259 15 0 0.0 0.0 0.00 0.00 0.00 74 1013.4
20260505030756 15 0 0.0 0.0 0.00 0.00 0.00 73 1013.0
20260505030252 16 0 0.0 0.0 0.00 0.00 0.00 72 1013.0
20260505025747 16 0 0.0 0.0 0.00 0.00 0.00 71 1013.4
20260505025246 16 4 0.0 0.0 0.00 0.00 0.00 69 1013.0
20260505024744 16 5 0.0 0.0 0.00 0.00 0.00 68 1013.4
20260505024241 16 40 0.0 0.0 0.00 0.00 0.00 68 1013.4
20260505023738 16 40 0.0 0.0 0.00 0.00 0.00 69 1013.4
20260505023235 17 338 0.0 0.0 0.00 0.00 0.00 70 1013.4
20260505022732 17 337 0.0 0.0 0.00 0.00 0.00 67 1013.0
20260505022229 17 337 0.0 0.0 0.00 0.00 0.00 66 1013.4
20260505021726 17 18 0.0 1.6 0.00 0.00 0.00 63 1013.4
20260505021223 17 38 0.0 0.0 0.00 0.00 0.00 65 1013.4
20260505020719 16 39 0.0 0.0 0.00 0.00 0.00 67 1013.0
20260505020214 17 39 0.0 0.0 0.00 0.00 0.00 68 1013.4
20260505015712 17 38 0.0 0.0 0.00 0.00 0.00 67 1013.0
20260505015209 16 38 0.0 0.0 0.00 0.00 0.00 67 1013.0
20260505014705 16 38 0.0 0.0 0.00 0.00 0.00 67 1013.4
20260505014203 16 38 0.0 0.0 0.00 0.00 0.00 69 1013.4
20260505013659 16 38 0.0 0.0 0.00 0.00 0.00 70 1013.4
20260505013156 17 38 0.0 0.0 0.00 0.00 0.00 70 1013.4
20260505012655 17 39 0.0 0.0 0.00 0.00 0.00 67 1013.0
20260505012147 17 38 0.0 0.0 0.00 0.00 0.00 65 1013.0
20260505011642 17 38 0.0 0.0 0.00 0.00 0.00 67 1013.0
20260505011139 17 38 0.0 0.0 0.00 0.00 0.00 67 1012.7
20260505010639 17 39 0.0 0.0 0.00 0.00 0.00 67 1013.0
20260505010137 17 39 0.0 0.0 0.00 0.00 0.00 72 1013.0
20260505005632 17 38 0.0 0.0 0.00 0.00 0.00 70 1012.7
20260505005130 17 38 0.0 0.0 0.00 0.00 0.00 70 1012.7
20260505004627 17 38 0.0 0.0 0.00 0.00 0.00 69 1012.7
20260505004123 17 38 0.0 0.0 0.00 0.00 0.00 71 1012.4
20260505003621 17 38 0.0 0.0 0.00 0.00 0.00 70 1012.4
20260505003118 17 38 0.0 0.0 0.00 0.00 0.00 67 1012.4
20260505002614 17 38 0.0 0.0 0.00 0.00 0.00 68 1012.4
20260505002113 17 38 0.0 0.0 0.00 0.00 0.00 66 1012.4
20260505001609 17 40 0.0 1.6 0.00 0.00 0.00 70 1012.0
20260505001107 17 12 0.0 0.0 0.00 0.00 0.00 76 1012.4
20260505000604 17 13 0.0 0.0 0.00 0.00 0.00 72 1012.4
20260504235558 18 12 0.0 0.0 0.00 0.00 0.00 73 1012.4
20260504235054 18 12 0.0 0.0 0.00 0.00 0.00 74 1012.4
20260504234551 18 25 0.0 1.6 0.00 0.00 0.00 69 1012.0
20260504234048 18 35 0.0 0.0 0.00 0.00 0.00 71 1012.0
20260504233543 18 34 0.0 0.0 0.00 0.00 0.00 71 1012.4
20260504233040 18 1 1.6 1.6 0.00 0.00 0.00 70 1012.0
20260504232538 18 21 0.0 0.0 0.00 0.00 0.00 73 1012.0
20260504232035 18 21 0.0 0.0 0.00 0.00 0.00 71 1012.0
20260504231532 18 21 0.0 0.0 0.00 0.00 0.00 74 1012.0
20260504231028 19 21 0.0 0.0 0.00 0.00 0.00 73 1012.4
20260504230524 19 21 0.0 0.0 0.00 0.00 0.00 73 1012.0
20260504230023 20 52 0.0 1.6 0.00 0.00 0.00 66 1012.0
20260504225520 21 60 1.6 3.2 0.00 0.00 0.00 64 1012.4
20260504225017 22 39 1.6 3.2 0.00 0.00 0.00 51 1012.7
20260504224514 22 328 1.6 3.2 0.00 0.00 0.00 49 1012.7
20260504224011 22 350 0.0 0.0 0.00 0.00 0.00 49 1012.4
20260504223507 22 281 1.6 1.6 0.00 0.00 0.00 49 1012.4
20260504223003 22 32 1.6 1.6 0.00 0.00 0.00 48 1012.0
20260504222500 22 302 1.6 1.6 0.00 0.00 0.00 48 1011.7
20260504221958 22 163 0.0 1.6 0.00 0.00 0.00 47 1012.0
20260504221455 22 78 0.0 0.0 0.00 0.00 0.00 48 1012.0
20260504220952 22 302 1.6 1.6 0.00 0.00 0.00 48 1012.0
20260504220448 22 356 1.6 1.6 0.00 0.00 0.00 45 1012.0
20260504215945 22 345 0.0 0.0 0.00 0.00 0.00 46 1012.0
20260504215442 23 159 1.6 1.6 0.00 0.00 0.00 44 1012.0
20260504214938 23 332 1.6 1.6 0.00 0.00 0.00 45 1012.0
20260504214435 23 336 0.0 0.0 0.00 0.00 0.00 44 1012.4
20260504213932 24 51 1.6 3.2 0.00 0.00 0.00 43 1011.7
20260504213427 24 297 1.6 1.6 0.00 0.00 0.00 43 1012.0
20260504212925 24 314 1.6 1.6 0.00 0.00 0.00 42 1012.0
20260504212420 25 345 0.0 1.6 0.00 0.00 0.00 44 1012.0
20260504211919 25 329 0.0 1.6 0.00 0.00 0.00 42 1012.0
20260504211415 25 331 1.6 1.6 0.00 0.00 0.00 40 1011.7
20260504210912 25 89 3.2 4.8 0.00 0.00 0.00 40 1012.0
20260504210409 25 278 0.0 1.6 0.00 0.00 0.00 39 1012.4
20260504205906 26 10 1.6 1.6 0.00 0.00 0.00 39 1012.0
20260504205404 25 226 3.2 3.2 0.00 0.00 0.00 38 1012.0
20260504204902 25 314 3.2 3.2 0.00 0.00 0.00 39 1012.0
20260504204400 26 12 1.6 1.6 0.00 0.00 0.00 38 1012.0
20260504203859 25 0 0.0 1.6 0.00 0.00 0.00 40 1012.0
20260504203355 25 38 1.6 1.6 0.00 0.00 0.00 40 1011.7
20260504202851 25 236 1.6 1.6 0.00 0.00 0.00 40 1012.0
20260504202348 24 354 0.0 0.0 0.00 0.00 0.00 42 1012.0
20260504201845 24 99 1.6 1.6 0.00 0.00 0.00 43 1012.4
20260504201343 25 340 0.0 1.6 0.00 0.00 0.00 43 1012.4
20260504200840 25 15 1.6 1.6 0.00 0.00 0.00 41 1012.4
20260504200336 24 267 1.6 1.6 0.00 0.00 0.00 46 1012.4
20260504195833 24 101 1.6 3.2 0.00 0.00 0.00 40 1012.4
20260504195328 23 357 0.0 1.6 0.00 0.00 0.00 43 1012.7
20260504194826 23 307 1.6 3.2 0.00 0.00 0.00 46 1012.7
20260504194321 24 44 3.2 4.8 0.00 0.00 0.00 41 1013.0
20260504193818 24 318 3.2 4.8 0.00 0.00 0.00 40 1012.7
20260504193315 24 242 3.2 4.8 0.00 0.00 0.00 41 1012.7
20260504192814 25 132 1.6 1.6 0.00 0.00 0.00 43 1013.0
20260504192311 25 226 1.6 3.2 0.00 0.00 0.00 42 1013.0
20260504191810 25 233 1.6 3.2 0.00 0.00 0.00 40 1013.0
20260504191307 23 350 0.0 0.0 0.00 0.00 0.00 44 1013.4
20260504190802 22 186 1.6 1.6 0.00 0.00 0.00 44 1013.4
20260504190258 22 343 1.6 3.2 0.00 0.00 0.00 42 1013.4
20260504185755 22 188 1.6 3.2 0.00 0.00 0.00 45 1013.4
20260504185252 23 41 1.6 1.6 0.00 0.00 0.00 45 1013.8
20260504184748 23 273 1.6 3.2 0.00 0.00 0.00 44 1013.8
20260504184244 23 348 1.6 1.6 0.00 0.00 0.00 42 1013.8
20260504183740 23 304 1.6 3.2 0.00 0.00 0.00 42 1013.8
20260504183237 23 12 0.0 0.0 0.00 0.00 0.00 41 1014.2
20260504182735 23 3 4.8 4.8 0.00 0.00 0.00 39 1013.8
20260504182232 23 108 3.2 3.2 0.00 0.00 0.00 40 1014.2
20260504181730 24 69 1.6 3.2 0.00 0.00 0.00 40 1014.2
20260504181227 24 97 4.8 4.8 0.00 0.00 0.00 40 1013.8
20260504180726 23 242 0.0 3.2 0.00 0.00 0.00 42 1014.5
20260504180224 23 282 1.6 1.6 0.00 0.00 0.00 44 1014.5
20260504175721 23 14 3.2 8.0 0.00 0.00 0.00 40 1014.5
20260504175218 22 4 1.6 1.6 0.00 0.00 0.00 41 1014.5
20260504174716 22 63 3.2 4.8 0.00 0.00 0.00 42 1014.8
20260504174214 22 328 0.0 1.6 0.00 0.00 0.00 46 1014.8
20260504173710 22 16 1.6 1.6 0.00 0.00 0.00 43 1014.8
20260504173207 22 158 1.6 1.6 0.00 0.00 0.00 41 1014.5
20260504172704 22 269 1.6 1.6 0.00 0.00 0.00 45 1014.8
20260504172200 22 281 1.6 1.6 0.00 0.00 0.00 44 1014.8
20260504171657 22 17 1.6 1.6 0.00 0.00 0.00 43 1014.8
20260504171154 21 51 0.0 0.0 0.00 0.00 0.00 43 1014.8
20260504170650 21 120 1.6 3.2 0.00 0.00 0.00 43 1014.8
20260504170148 21 359 3.2 3.2 0.00 0.00 0.00 45 1014.8